Regional Weather Roundup
Issued by NWS Green Bay, WI

Home | Current Version | Previous Version | Text Only | Print | Product List | Glossary On
Versions: 1 2 3 4 5 6 7 8 9 10 11 12 13 14 15 16 17 18 19 20 21 22 23 24 25 26 27 28 29 30 31 32 33 34 35 36 37 38 39 40 41 42 43 44 45 46 47 48 49 50
000
ASUS43 KGRB 282010
RWRGRB

NORTH-CENTRAL AND NORTHEAST WISCONSIN REGIONAL WEATHER ROUNDUP
NATIONAL WEATHER SERVICE GREEN BAY WI
300 PM CDT SAT MAR 28 2015

WIZ005-009-010>012-018-019-282100-
NORTH CENTRAL WISCONSIN

CITY           SKY/WX    TMP DP  RH WIND       PRES   REMARKS
IRONWOOD       SUNNY     39   9  28 SW16      30.09F
MANITOWISH WTR SUNNY     39   8  28 SW9       30.11F
ARBOR VITAE    SUNNY     39   8  27 SW3G16    30.12F
EAGLE RIVER    SUNNY     37   6  28 SW7G17    30.13F
LAND O LAKES   SUNNY     38   3  22 SW5       30.13F
RHINELANDER    SUNNY     39  10  30 SW10      30.15F
PHILLIPS       SUNNY     38  10  31 SW13G18   30.14F
ANTIGO         SUNNY     36  15  43 SW10      30.18F
TOMAHAWK       SUNNY     37  10  32 S5        30.17F
MERRILL        SUNNY     38  13  35 SW10      30.18F
$$

WIZ013-073-282100-
NORTHEAST WISCONSIN

CITY           SKY/WX    TMP DP  RH WIND       PRES   REMARKS
IRON MOUNTAIN  SUNNY     39   8  27 S8        30.15F
MARINETTE      SUNNY     36  18  48 SW9G16    30.24F
OCONTO         SUNNY     36  17  45 SE12      30.24F
$$

WIZ017-030-035>037-045-282100-
CENTRAL WISCONSIN

CITY           SKY/WX    TMP DP  RH WIND       PRES   REMARKS
MEDFORD        SUNNY     35  14  41 S9        30.17F
WAUSAU         SUNNY     37   8  30 SW10      30.18F
MOSINEE        SUNNY     37  10  32 S9        30.20F
MARSHFIELD     SUNNY     42   9  25 S13G18    30.19F
WISC RAPIDS    SUNNY     40   3  21 S7        30.23F
STEVENS POINT  SUNNY     37   8  29 W7        30.21F
WAUPACA        SUNNY     43   2  18 SW6       30.24F
SHAWANO        SUNNY     41  13  32 SW9       30.24F
CLINTONVILLE   SUNNY     39  10  30 SW12      30.24F
$$

WIZ038-039-048-051-282100-
FOX VALLEY

CITY           SKY/WX    TMP DP  RH WIND       PRES   REMARKS
NWS GREEN BAY  SUNNY     36  19  50 SW12      30.26F
APPLETON       SUNNY     37  10  32 SW9       30.25F
OSHKOSH        SUNNY     37  11  34 MISG      30.25F
FOND DU LAC    SUNNY     38  10  31 SW9       30.26F
$$

WIZ022-050-052-282100-
EAST CENTRAL WISCONSIN

CITY           SKY/WX    TMP DP  RH WIND       PRES   REMARKS
STURGEON BAY   SUNNY     34  18  51 S8        30.27F
MANITOWOC      SUNNY     33  22  63 S14       30.28F
SHEBOYGAN      SUNNY     36  20  52 SE8       30.27F
$$

LMZ563-521-522-541>543-282100-
LAKESHORE

STATION/POSITION TIME  TEMP    WIND        PRES    VSBY  WAVE
                       AIR SEA DIR/SP/G                  HT/PER
                 (UTC) (F)     (DEG/KT/KT) (MB)    (MI)  (FT/S)
SHEBOYGAN LKSHOR 2000   28     150/ 12/ 13 1026.8F
KEWAUNEE LKSHORE 2000   28     170/ 14/ 16 1024.5S
NORTHPORT PIER   2000   28     150/ 10/ 18 1024.7S
SISTER BAY LKSHO 1900   41     270/ 10/ 12   N/A
CHAMBERS ISLAND  2000   31     180/  7/ 13 1024.7S
MENOMINEE LKSHOR 2000   30     150/ 13     1024.9F
$$



USA.gov is the U.S. government's official web portal to all federal, state and local government web resources and services.